Time,TemperatureF,DewpointF,PressureIn,WindDirection,WindDirectionDegrees,WindSpeedMPH,WindSpeedGustMPH,Humidity,HourlyPrecipIn,Conditions,Clouds,dailyrainin,SoftwareType,DateUTC
2013-04-18 00:12:00,31.0,25.0,30.36,ENE,70,0.0,-999.0,79,-99.99,,,0.00,weatherlink.com 1.10,2013-04-18 07:12:00,
2013-04-18 00:27:00,29.8,25.0,30.36,SSE,149,0.0,-999.0,82,-99.99,,,0.00,weatherlink.com 1.10,2013-04-18 07:27:00,
2013-04-18 00:42:00,30.2,26.0,30.36,ESE,102,1.0,-999.0,83,-99.99,,,0.00,weatherlink.com 1.10,2013-04-18 07:42:00,
2013-04-18 00:57:00,30.8,26.0,30.36,SSW,210,0.0,-999.0,82,-99.99,,,0.00,weatherlink.com 1.10,2013-04-18 07:57:00,
2013-04-18 01:12:00,31.1,26.0,30.36,SSW,213,1.0,-999.0,82,-99.99,,,0.00,weatherlink.com 1.10,2013-04-18 08:12:00,
2013-04-18 01:27:00,32.0,27.0,30.36,SW,221,0.0,-999.0,80,-99.99,,,0.00,weatherlink.com 1.10,2013-04-18 08:27:00,
2013-04-18 01:42:00,31.2,26.0,30.36,South,191,1.0,-999.0,82,-99.99,,,0.00,weatherlink.com 1.10,2013-04-18 08:42:00,
2013-04-18 01:57:00,31.6,27.0,30.36,SW,226,3.0,-999.0,82,-99.99,,,0.00,weatherlink.com 1.10,2013-04-18 08:57:00,
2013-04-18 02:12:00,31.6,27.0,30.36,SSW,205,2.0,-999.0,82,-99.99,,,0.00,weatherlink.com 1.10,2013-04-18 09:12:00,
2013-04-18 02:27:00,31.2,27.0,30.36,SE,127,0.0,-999.0,85,-99.99,,,0.00,weatherlink.com 1.10,2013-04-18 09:27:00,
2013-04-18 02:42:00,31.5,28.0,30.36,SSE,159,2.0,-999.0,85,-99.99,,,0.00,weatherlink.com 1.10,2013-04-18 09:42:00,
2013-04-18 02:57:00,31.8,28.0,30.36,SSE,149,1.0,-999.0,85,-99.99,,,0.00,weatherlink.com 1.10,2013-04-18 09:57:00,
2013-04-18 03:12:00,32.8,28.0,30.35,SSE,155,1.0,-999.0,83,-99.99,,,0.00,weatherlink.com 1.10,2013-04-18 10:12:00,
2013-04-18 03:27:00,33.2,29.0,30.35,SSE,155,1.0,-999.0,84,-99.99,,,0.00,weatherlink.com 1.10,2013-04-18 10:27:00,
2013-04-18 03:42:00,33.3,29.0,30.35,SSW,206,1.0,-999.0,84,-99.99,,,0.00,weatherlink.com 1.10,2013-04-18 10:42:00,
2013-04-18 03:57:00,33.7,29.0,30.36,SSW,208,1.0,-999.0,83,-99.99,,,0.00,weatherlink.com 1.10,2013-04-18 10:57:00,
2013-04-18 04:12:00,33.7,29.0,30.36,SSE,147,0.0,-999.0,83,-99.99,,,0.00,weatherlink.com 1.10,2013-04-18 11:12:00,
2013-04-18 04:27:00,34.3,29.0,30.36,South,169,3.0,-999.0,80,-99.99,,,0.00,weatherlink.com 1.10,2013-04-18 11:27:00,
2013-04-18 04:42:00,34.6,29.0,30.36,SSE,150,4.0,-999.0,79,-99.99,,,0.00,weatherlink.com 1.10,2013-04-18 11:42:00,
2013-04-18 04:57:00,34.4,28.0,30.36,SSE,148,4.0,-999.0,78,-99.99,,,0.00,weatherlink.com 1.10,2013-04-18 11:57:00,
2013-04-18 05:12:00,34.7,28.0,30.36,SSE,155,5.0,-999.0,76,-99.99,,,0.00,weatherlink.com 1.10,2013-04-18 12:12:00,
2013-04-18 05:27:00,34.7,28.0,30.36,South,173,3.0,-999.0,76,-99.99,,,0.00,weatherlink.com 1.10,2013-04-18 12:27:00,
2013-04-18 05:42:00,34.8,28.0,30.36,SSE,162,2.0,-999.0,76,-99.99,,,0.00,weatherlink.com 1.10,2013-04-18 12:42:00,
2013-04-18 05:57:00,34.8,28.0,30.36,SSE,150,3.0,-999.0,76,-99.99,,,0.00,weatherlink.com 1.10,2013-04-18 12:57:00,
2013-04-18 06:12:00,35.2,28.0,30.36,SSE,150,2.0,-999.0,76,-99.99,,,0.00,weatherlink.com 1.10,2013-04-18 13:12:00,
2013-04-18 06:27:00,35.1,28.0,30.35,SE,143,2.0,-999.0,75,-99.99,,,0.00,weatherlink.com 1.10,2013-04-18 13:27:00,
2013-04-18 06:42:00,34.1,28.0,30.35,SSE,155,0.0,-999.0,77,-99.99,,,0.00,weatherlink.com 1.10,2013-04-18 13:42:00,
2013-04-18 06:57:00,34.9,28.0,30.36,SSE,149,0.0,-999.0,76,-99.99,,,0.00,weatherlink.com 1.10,2013-04-18 13:57:00,
2013-04-18 07:12:00,35.1,28.0,30.37,SSE,155,1.0,-999.0,76,-99.99,,,0.00,weatherlink.com 1.10,2013-04-18 14:12:00,
2013-04-18 07:27:00,36.5,29.0,30.37,ENE,69,1.0,-999.0,74,-99.99,,,0.00,weatherlink.com 1.10,2013-04-18 14:27:00,
2013-04-18 07:42:00,37.9,29.0,30.37,SSE,150,5.0,-999.0,71,-99.99,,,0.00,weatherlink.com 1.10,2013-04-18 14:42:00,
2013-04-18 07:57:00,39.2,30.0,30.37,ESE,119,2.0,-999.0,70,-99.99,,,0.00,weatherlink.com 1.10,2013-04-18 14:57:00,
2013-04-18 08:12:00,40.9,31.0,30.37,East,95,0.0,-999.0,67,-99.99,,,0.00,weatherlink.com 1.10,2013-04-18 15:12:00,
2013-04-18 08:27:00,40.7,31.0,30.38,ESE,102,4.0,-999.0,68,-99.99,,,0.00,weatherlink.com 1.10,2013-04-18 15:27:00,
2013-04-18 08:42:00,40.8,31.0,30.38,SE,127,6.0,-999.0,67,-99.99,,,0.00,weatherlink.com 1.10,2013-04-18 15:42:00,
2013-04-18 08:57:00,40.5,30.0,30.38,SSE,165,5.0,-999.0,67,-99.99,,,0.00,weatherlink.com 1.10,2013-04-18 15:57:00,
2013-04-18 09:12:00,40.9,31.0,30.38,SE,132,3.0,-999.0,67,-99.99,,,0.00,weatherlink.com 1.10,2013-04-18 16:12:00,
2013-04-18 09:27:00,42.4,31.0,30.38,SE,134,6.0,-999.0,64,-99.99,,,0.00,weatherlink.com 1.10,2013-04-18 16:27:00,
2013-04-18 09:42:00,43.1,31.0,30.38,SE,146,4.0,-999.0,63,-99.99,,,0.00,weatherlink.com 1.10,2013-04-18 16:42:00,
2013-04-18 09:57:00,43.9,31.0,30.38,West,277,5.0,-999.0,62,-99.99,,,0.00,weatherlink.com 1.10,2013-04-18 16:57:00,
2013-04-18 10:12:00,43.8,31.0,30.38,WNW,291,2.0,-999.0,62,-99.99,,,0.00,weatherlink.com 1.10,2013-04-18 17:12:00,
2013-04-18 10:27:00,44.3,32.0,30.38,West,281,1.0,-999.0,62,-99.99,,,0.00,weatherlink.com 1.10,2013-04-18 17:27:00,
2013-04-18 10:42:00,45.0,32.0,30.38,WNW,291,2.0,-999.0,60,-99.99,,,0.00,weatherlink.com 1.10,2013-04-18 17:42:00,
2013-04-18 10:57:00,46.0,33.0,30.38,WSW,240,3.0,-999.0,60,-99.99,,,0.00,weatherlink.com 1.10,2013-04-18 17:57:00,
2013-04-18 11:12:00,46.2,33.0,30.38,NW,326,4.0,-999.0,61,-99.99,,,0.00,weatherlink.com 1.10,2013-04-18 18:12:00,
2013-04-18 11:27:00,46.9,33.0,30.38,NE,44,4.0,-999.0,59,-99.99,,,0.00,weatherlink.com 1.10,2013-04-18 18:27:00,
2013-04-18 11:42:00,47.7,32.0,30.38,WSW,248,1.0,-999.0,56,-99.99,,,0.00,weatherlink.com 1.10,2013-04-18 18:42:00,
2013-04-18 11:57:00,48.7,33.0,30.37,WSW,238,2.0,-999.0,56,-99.99,,,0.00,weatherlink.com 1.10,2013-04-18 18:57:00,
2013-04-18 12:12:00,48.7,33.0,30.37,WNW,297,4.0,-999.0,56,-99.99,,,0.00,weatherlink.com 1.10,2013-04-18 19:12:00,
2013-04-18 12:27:00,50.0,34.0,30.37,WNW,288,3.0,-999.0,55,-99.99,,,0.00,weatherlink.com 1.10,2013-04-18 19:27:00,
2013-04-18 12:42:00,49.9,35.0,30.36,SSW,208,5.0,-999.0,56,-99.99,,,0.00,weatherlink.com 1.10,2013-04-18 19:42:00,
2013-04-18 12:57:00,51.0,34.0,30.36,NNW,330,2.0,-999.0,52,-99.99,,,0.00,weatherlink.com 1.10,2013-04-18 19:57:00,
2013-04-18 13:12:00,52.0,34.0,30.36,NW,307,7.0,-999.0,51,-99.99,,,0.00,weatherlink.com 1.10,2013-04-18 20:12:00,
2013-04-18 13:27:00,51.5,35.0,30.36,North,354,3.0,-999.0,54,-99.99,,,0.00,weatherlink.com 1.10,2013-04-18 20:27:00,
2013-04-18 13:42:00,51.8,34.0,30.36,NNE,17,4.0,-999.0,52,-99.99,,,0.00,weatherlink.com 1.10,2013-04-18 20:42:00,
2013-04-18 13:57:00,51.7,35.0,30.35,WNW,287,4.0,-999.0,53,-99.99,,,0.00,weatherlink.com 1.10,2013-04-18 20:57:00,
2013-04-18 14:12:00,52.9,35.0,30.35,WNW,288,6.0,-999.0,51,-99.99,,,0.00,weatherlink.com 1.10,2013-04-18 21:12:00,
2013-04-18 14:27:00,52.7,35.0,30.35,NNW,345,12.0,-999.0,52,-99.99,,,0.00,weatherlink.com 1.10,2013-04-18 21:27:00,
2013-04-18 14:42:00,54.1,36.0,30.35,WNW,301,8.0,-999.0,51,-99.99,,,0.00,weatherlink.com 1.10,2013-04-18 21:42:00,
2013-04-18 14:57:00,54.0,36.0,30.35,NW,316,5.0,-999.0,50,-99.99,,,0.00,weatherlink.com 1.10,2013-04-18 21:57:00,
2013-04-18 15:12:00,54.8,37.0,30.34,NW,319,9.0,-999.0,51,-99.99,,,0.00,weatherlink.com 1.10,2013-04-18 22:12:00,
2013-04-18 15:27:00,54.1,38.0,30.34,WNW,300,9.0,-999.0,54,-99.99,,,0.00,weatherlink.com 1.10,2013-04-18 22:27:00,
2013-04-18 15:42:00,53.9,37.0,30.34,WNW,288,8.0,-999.0,54,-99.99,,,0.00,weatherlink.com 1.10,2013-04-18 22:42:00,
2013-04-18 15:57:00,54.2,39.0,30.33,NNW,342,8.0,-999.0,56,-99.99,,,0.00,weatherlink.com 1.10,2013-04-18 22:57:00,
2013-04-18 16:12:00,54.9,38.0,30.33,WNW,301,7.0,-999.0,53,-99.99,,,0.00,weatherlink.com 1.10,2013-04-18 23:12:00,
2013-04-18 16:27:00,54.0,37.0,30.32,NNW,345,5.0,-999.0,54,-99.99,,,0.00,weatherlink.com 1.10,2013-04-18 23:27:00,
2013-04-18 16:42:00,53.7,38.0,30.32,NNW,328,9.0,-999.0,56,-99.99,,,0.00,weatherlink.com 1.10,2013-04-18 23:42:00,
2013-04-18 16:57:00,54.3,39.0,30.32,North,350,8.0,-999.0,56,-99.99,,,0.00,weatherlink.com 1.10,2013-04-18 23:57:00,
2013-04-18 17:12:00,54.7,38.0,30.31,NW,305,4.0,-999.0,53,-99.99,,,0.00,weatherlink.com 1.10,2013-04-19 00:12:00,
2013-04-18 17:27:00,54.6,38.0,30.31,NW,308,6.0,-999.0,53,-99.99,,,0.00,weatherlink.com 1.10,2013-04-19 00:27:00,
2013-04-18 17:42:00,54.0,38.0,30.32,NNW,330,6.0,-999.0,55,-99.99,,,0.00,weatherlink.com 1.10,2013-04-19 00:42:00,
2013-04-18 17:57:00,53.2,38.0,30.31,NNW,333,7.0,-999.0,57,-99.99,,,0.00,weatherlink.com 1.10,2013-04-19 00:57:00,
2013-04-18 18:12:00,52.5,38.0,30.31,NNW,330,10.0,-999.0,59,-99.99,,,0.00,weatherlink.com 1.10,2013-04-19 01:12:00,
2013-04-18 18:27:00,51.8,38.0,30.32,NNE,23,8.0,-999.0,60,-99.99,,,0.00,weatherlink.com 1.10,2013-04-19 01:27:00,
2013-04-18 18:42:00,51.2,38.0,30.31,NNE,24,9.0,-999.0,61,-99.99,,,0.00,weatherlink.com 1.10,2013-04-19 01:42:00,
2013-04-18 18:57:00,50.5,38.0,30.31,NNW,335,6.0,-999.0,63,-99.99,,,0.00,weatherlink.com 1.10,2013-04-19 01:57:00,
2013-04-18 19:12:00,49.7,38.0,30.30,NNW,330,5.0,-999.0,64,-99.99,,,0.00,weatherlink.com 1.10,2013-04-19 02:12:00,
2013-04-18 19:27:00,48.8,38.0,30.30,NNE,12,6.0,-999.0,66,-99.99,,,0.00,weatherlink.com 1.10,2013-04-19 02:27:00,
2013-04-18 19:42:00,48.2,38.0,30.30,NNE,33,4.0,-999.0,68,-99.99,,,0.00,weatherlink.com 1.10,2013-04-19 02:42:00,
2013-04-18 19:57:00,47.1,38.0,30.30,NNW,342,3.0,-999.0,70,-99.99,,,0.00,weatherlink.com 1.10,2013-04-19 02:57:00,
2013-04-18 20:12:00,46.2,38.0,30.30,NNE,12,1.0,-999.0,72,-99.99,,,0.00,weatherlink.com 1.10,2013-04-19 03:12:00,
2013-04-18 20:27:00,45.5,37.0,30.30,NNW,341,1.0,-999.0,73,-99.99,,,0.00,weatherlink.com 1.10,2013-04-19 03:27:00,
2013-04-18 20:42:00,45.4,37.0,30.31,NNW,335,2.0,-999.0,73,-99.99,,,0.00,weatherlink.com 1.10,2013-04-19 03:42:00,
2013-04-18 20:57:00,44.0,37.0,30.31,North,352,2.0,-999.0,76,-99.99,,,0.00,weatherlink.com 1.10,2013-04-19 03:57:00,
2013-04-18 21:12:00,43.7,37.0,30.32,NNW,341,0.0,-999.0,77,-99.99,,,0.00,weatherlink.com 1.10,2013-04-19 04:12:00,
2013-04-18 21:27:00,43.2,37.0,30.32,SSE,162,3.0,-999.0,78,-99.99,,,0.00,weatherlink.com 1.10,2013-04-19 04:27:00,
2013-04-18 21:42:00,42.7,37.0,30.31,SSE,163,1.0,-999.0,80,-99.99,,,0.00,weatherlink.com 1.10,2013-04-19 04:42:00,
2013-04-18 21:57:00,42.7,37.0,30.31,SSE,150,0.0,-999.0,80,-99.99,,,0.00,weatherlink.com 1.10,2013-04-19 04:57:00,
2013-04-18 22:12:00,42.2,37.0,30.31,SSW,200,0.0,-999.0,82,-99.99,,,0.00,weatherlink.com 1.10,2013-04-19 05:12:00,
2013-04-18 22:27:00,41.6,37.0,30.31,South,171,0.0,-999.0,84,-99.99,,,0.00,weatherlink.com 1.10,2013-04-19 05:27:00,
2013-04-18 22:42:00,41.7,37.0,30.31,SE,124,1.0,-999.0,84,-99.99,,,0.00,weatherlink.com 1.10,2013-04-19 05:42:00,
2013-04-18 22:57:00,41.1,37.0,30.30,ESE,117,1.0,-999.0,85,-99.99,,,0.00,weatherlink.com 1.10,2013-04-19 05:57:00,
2013-04-18 23:12:00,40.9,37.0,30.29,SSE,158,2.0,-999.0,85,-99.99,,,0.00,weatherlink.com 1.10,2013-04-19 06:12:00,
2013-04-18 23:27:00,41.0,37.0,30.29,SE,131,0.0,-999.0,85,-99.99,,,0.00,weatherlink.com 1.10,2013-04-19 06:27:00,
2013-04-18 23:42:00,40.7,37.0,30.29,ESE,116,2.0,-999.0,86,-99.99,,,0.00,weatherlink.com 1.10,2013-04-19 06:42:00,
2013-04-18 23:57:00,40.9,37.0,30.29,ESE,115,0.0,-999.0,86,-99.99,,,0.00,weatherlink.com 1.10,2013-04-19 06:57:00,